sat.trackr.live / text

‹ back to catalog

2025-313B

NORAD 67249 · 2025-313B

PAYLOAD ACTIVE UNKNOWN

§ Identity

Operator
Country
TBD
Launch date
2025-12-28
Launch site
VOSTO
Launch vehicle
Mass (kg)
RCS (m²)

External: N2YO · Heavens-Above · Gunter

§ Orbital elements

Epoch: 2026-09-19T23:20:49.546752Z

Period
97.65 min
Inclination
97.5013°
Eccentricity
0.0291700
Mean motion
14.74702379 rev/d
Perigee alt
441.2 km
Apogee alt
851.0 km
Semi-major
7,024.2 km
B*
1.2858e-4
RAAN
321.6088°
Arg perigee
27.1337°
Mean anomaly
334.4782°
Rev number
3,910

§ Raw data

2025-313B1 67249U 25313B   26262.97279568  .00001657  00000+0  12858-3 0  99982 67249  97.5013 321.6088 0291700  27.1337 334.4782 14.74702379 39103

JSON: /api/v1/satellites/67249 · /tle

For live sub-satellite position, see the globe view (requires WebGL).

§ Visibility from observer

Set your observer location to see the next 7 days of passes ≥ 10°. The values pass through the URL so the page stays shareable.

No JS? Fill the form by hand. The geolocation button needs JavaScript.